AirNav   Everest Fuels
 
 522 users online  

2K1 Pond Creek Municipal Airport
Pond Creek, Oklahoma, USA

GOING TO POND CREEK?


FAA INFORMATION EFFECTIVE 28 MARCH 2019

Location

FAA Identifier: 2K1
Lat/Long: 36-39-45.1090N / 097-48-31.1980W
36-39.751817N / 097-48.519967W
36.6625303 / -97.8086661
(estimated)
Elevation: 1061 ft. / 323 m (estimated)
Variation: 07E (1985)
Time zone: UTC -5 (UTC -6 during Standard Time)
Zip code: 73766

Airport Operations

Airport use: Open to the public
Activation date: 05/1947
Control tower: no
ARTCC: KANSAS CITY CENTER
FSS: MC ALESTER FLIGHT SERVICE STATION
NOTAMs facility: MLC (NOTAM-D service available)
Attendance: UNATNDD
Wind indicator: no
Segmented circle: no

Airport Communications

CTAF: 122.9
WX AWOS-3 at WDG (17 nm S): 120.625 (580-237-1475)

Nearby radio navigation aids

VOR radial/distance  VOR name  Freq  Var
ODGr349/17.4WOODRING VOR/DME109.0008E
ENDr011/19.8VANCE VORTAC115.4005E
PERr255/31.6PIONEER VORTAC113.2006E
ANYr143/34.5ANTHONY VORTAC112.9007E

Airport Services

Airframe service: NONE
Powerplant service: NONE
Bottled oxygen: NONE
Bulk oxygen: NONE

Runway Information

Runway 15/33

Dimensions: 1220 x 30 ft. / 372 x 9 m
Surface: asphalt, in fair condition
RUNWAY 15  RUNWAY 33
Latitude: 36-39.936500N36-39.751425N
Longitude: 097-48.625000W097-48.527488W
Elevation: 1061.0 ft.1061.0 ft.
Traffic pattern: leftleft
Runway heading: 150 magnetic, 157 true330 magnetic, 337 true
Obstructions: 25 ft. trees, 222 ft. from runway, 95 ft. right of centerline
+15' ROAD 60' FM THRLD END.
none

Runway 17/35

Dimensions: 2320 x 430 ft. / 707 x 131 m
FULL WIDTH OF RY NOT MAINTAINED; USE MIDDLE OF RY SFC.
Surface: turf, in good condition
RUNWAY 17  RUNWAY 35
Latitude: 36-39.924000N36-39.541667N
Longitude: 097-48.520000W097-48.520000W
Elevation: 1061.0 ft.1061.0 ft.
Gradient: 0.3%0.3%
Traffic pattern: leftleft
Runway heading: 173 magnetic, 180 true353 magnetic, 000 true
Obstructions: 35 ft. pole, 100 ft. from runway, 2:1 slope to clearnone

Airport Ownership and Management from official FAA records

Ownership: Publicly-owned
Owner: CITY OF POND CREEK
CITY HALL, PO BOX 6
POND CREEK, OK 73766
Phone 580-532-4915
Manager: ART CURL
CITY HALL, PO BOX 6
POND CREEK, OK 73766
Phone 580-532-4915
OR CONTACT POLICE DEPARTMENT 580-532-5050.

Airport Operational Statistics

Aircraft based on the field: 5
Single engine airplanes: 5
    
Aircraft operations: avg 20/week *
95% local general aviation
5% transient general aviation
* for 12-month period ending 19 September 2018

Additional Remarks

RWY 15/33 PVT MAINTAINED.

Instrument Procedures

There are no published instrument procedures at 2K1.

Some nearby airports with instrument procedures:

O53 - Medford Municipal Airport (8 nm N)
KWDG - Enid Woodring Regional Airport (17 nm S)
KEND - Vance Air Force Base (20 nm S)
KBKN - Blackwell-Tonkawa Municipal Airport (23 nm E)
F22 - Perry Municipal Airport (31 nm SE)
 
Loc | Ops | Rwys | IFR | FBO | Links
Com | Nav | Svcs | Stats | Notes
Area around 2K1 (Pond Creek Municipal Airport)
 
Road maps at: MapQuest Bing Google
 
Aerial photo
No photo
 
Sectional chart

 
Airport distance calculator
Flying to Pond Creek Municipal Airport? Find the distance to fly.

From to 2K1

Sunrise and sunset
Times for 23-Apr-2019
 Local
(UTC-5)
 Zulu
(UTC)
Morning civil twilight06:2111:21
Sunrise06:4811:48
Sunset20:1101:11
Evening civil twilight20:3801:38

Current date and time
Zulu (UTC)  23-Apr-2019 05:05:31
Local (UTC-5)  23-Apr-2019 00:05:31
 
METAR
KWDG 
18nm S 
230455Z AUTO 02004KT 10SM SCT050 16/13 A3006 RMK AO2
KEND 
21nm S 
230456Z AUTO 01003KT 10SM CLR 16/15 A3006 RMK AO2 SLP174 T01640151 $
KBKN 
23nm E 
230455Z AUTO 00000KT 10SM OVC036 17/14 A3010 RMK AO2
KPNC 
34nm E 
230453Z AUTO 03004KT 10SM BKN041 OVC050 17/12 A3006 RMK AO2 SLP170 T01670117 $
TAF
KEND 
21nm S 
230200Z 2302/2408 36009KT 9999 FEW035 SCT050 BKN180 QNH3000INS BECMG 2305/2306 02009KT 9000 -SHRA VCTS OVC040CB QNH3006INS BECMG 2306/2307 02015G20KT 8000 -TSRA OVC030CB QNH3008INS BECMG 2309/2310 03012KT 8000 -RA BKN010 OVC050 QNH3009INS BECMG 2317/2318 03009KT 9999 NSW OVC015 QNH3000INS TX19/2302Z TN11/2312Z LAST NO AMDS AFT 2302 NEXT 2310
NOTAMs
Click for the latest NOTAMs
NOTAMs are issued by the DoD/FAA and will open in a separate window not controlled by AirNav.

 

 
 

Would you like to see your business listed on this page?

 If your business provides an interesting product or service to pilots, flight crews, aircraft, or users of the Pond Creek Municipal Airport, you should consider listing it here.  To start the listing process, click on the button below
 
Add a business
 

Other Pages about Pond Creek Municipal Airport

Update a link
 
Copyright © AirNav, LLC. All rights reserved. Privacy Policy  Contact